Weather History for KYNG - June, 2013

Change the Weather History Date:

Sunday, June 2, 2013

  Actual Average Record
Temperature  
Mean Temperature 68 °F 63 °F  
Max Temperature 77 °F 74 °F 96 °F (1934)
Min Temperature 58 °F 52 °F 33 °F (1966)
Degree Days  
Heating Degree Days 0 4  
Month to date heating degree days 0 9  
Since 1 June heating degree days 0 9  
Since 1 July heating degree days 6100 6289  
Cooling Degree Days 3 2  
Month to date cooling degree days 14 4  
Year to date cooling degree days 102 43  
Since 1 June cooling degree days 14 4  
Growing Degree Days 20 (Base 50)    
Moisture  
Dew Point 61 °F    
Average Humidity 74    
Maximum Humidity 100    
Minimum Humidity 47    
Precipitation  
Precipitation 0.88 in 0.13 in 1.47 in (1965)
Month to date precipitation 0.90 0.26  
Year to date precipitation 12.67 15.05  
Snow  
Snow 0.00 in 0.00 in - ()
Month to date snowfall 0.0 0.0  
Since 1 June snowfall 0.0 0.0  
Since 1 July snowfall 80.9 62.7  
Snow Depth 0.00 in    
Sea Level Pressure  
Sea Level Pressure 29.82 in    
Wind  
Wind Speed 12 mph (WSW)    
Max Wind Speed 29 mph    
Max Gust Speed 37 mph    
Visibility 9 miles    
Events Rain , Thunderstorm    
T = Trace of Precipitation, MM = Missing Value Source: NWS Daily Summary

Daily Weather History Graph

Daily Weather History Graph

Search for Another Location

Airport or City:

Trip Planner

Search our weather history database for the weather conditions in past years. The results will help you decide how hot, cold, wet, or windy it might be!

Date:

Astronomy

Jun. 02, 2013 Rise Set
Actual Time 5:51 AM EDT 8:50 PM EDT
Civil Twilight 5:18 AM EDT 9:23 PM EDT
Nautical Twilight 4:36 AM EDT 10:05 PM EDT
Astronomical Twilight 3:47 AM EDT 10:55 PM EDT
Moon 2:20 AM EDT (6/2) 3:16 PM EDT (6/2)
Length of Visible Light 16h 05m
Length of Day
14h 58m
Waning Crescent, 31% of the Moon is Illuminated
Jun 2
Waning Crescent
Jun 8
New
Jun 16
First Quarter
Jun 23
Full
Jun 30
Last Quarter

Hourly Weather History & Observations

Time (EDT) Temp. Dew Point Humidity Pressure Visibility Wind Dir Wind Speed Gust Speed Precip Events Conditions
12:17 AM 75.2 °F 64.4 °F 69% 29.79 in 10.0 mi South 9.2 mph - N/A Thunderstorm Thunderstorm
12:51 AM 71.1 °F 66.0 °F 84% 29.75 in 10.0 mi SSW 3.5 mph - 0.02 in Thunderstorm Thunderstorm
1:51 AM 66.9 °F 64.0 °F 90% 29.77 in 2.0 mi West 28.8 mph 36.8 mph 0.21 in Rain , Thunderstorm Thunderstorms and Rain
2:27 AM 64.4 °F 64.4 °F 100% 29.81 in 5.0 mi WSW 8.1 mph 19.6 mph 0.50 in Rain , Thunderstorm Light Thunderstorms and Rain
2:38 AM 64.4 °F 64.4 °F 100% 29.81 in 7.0 mi SW 8.1 mph - 0.53 in Rain , Thunderstorm Light Thunderstorms and Rain
2:51 AM 64.9 °F 64.0 °F 97% 29.78 in 6.0 mi SW 6.9 mph - 0.55 in Rain , Thunderstorm Light Thunderstorms and Rain
3:35 AM 64.4 °F 64.4 °F 100% 29.80 in 7.0 mi SSW 5.8 mph - 0.08 in Rain Light Rain
3:51 AM 66.0 °F 64.0 °F 93% 29.78 in 9.0 mi SSW 8.1 mph - 0.11 in Rain Light Rain
4:34 AM 66.2 °F 64.4 °F 94% 29.80 in 10.0 mi South 8.1 mph - 0.01 in Rain Light Rain
4:51 AM 66.0 °F 64.9 °F 96% 29.77 in 10.0 mi SSW 8.1 mph - 0.01 in   Overcast
5:31 AM 66.2 °F 64.4 °F 94% 29.79 in 10.0 mi SSW 8.1 mph - N/A   Mostly Cloudy
5:51 AM 66.0 °F 64.9 °F 96% 29.77 in 10.0 mi SSW 8.1 mph - N/A   Overcast
6:47 AM 66.2 °F 64.4 °F 94% 29.80 in 10.0 mi SW 9.2 mph - N/A   Mostly Cloudy
6:51 AM 66.9 °F 64.0 °F 90% 29.78 in 10.0 mi SW 10.4 mph - N/A   Mostly Cloudy
7:23 AM 66.2 °F 64.4 °F 94% 29.80 in 10.0 mi SW 10.4 mph - N/A   Scattered Clouds
7:51 AM 66.9 °F 64.0 °F 90% 29.79 in 10.0 mi WSW 10.4 mph - N/A   Scattered Clouds
8:28 AM 68.0 °F 62.6 °F 83% 29.82 in 10.0 mi WSW 11.5 mph - N/A   Mostly Cloudy
8:51 AM 68.0 °F 63.0 °F 84% 29.81 in 10.0 mi WSW 17.3 mph 21.9 mph N/A   Overcast
9:51 AM 71.1 °F 63.0 °F 75% 29.80 in 10.0 mi SW 13.8 mph 19.6 mph N/A   Mostly Cloudy
10:28 AM 69.8 °F 59.0 °F 68% 29.83 in 10.0 mi West 10.4 mph 20.7 mph N/A   Mostly Cloudy
10:51 AM 72.0 °F 60.1 °F 66% 29.81 in 10.0 mi WSW 16.1 mph - N/A   Scattered Clouds
11:51 AM 73.9 °F 59.0 °F 59% 29.81 in 10.0 mi WSW 17.3 mph 26.5 mph N/A   Mostly Cloudy
12:51 PM 75.0 °F 55.0 °F 50% 29.82 in 10.0 mi WSW 21.9 mph 27.6 mph N/A   Scattered Clouds
1:51 PM 77.0 °F 55.9 °F 48% 29.83 in 10.0 mi WSW 16.1 mph 25.3 mph N/A   Scattered Clouds
2:51 PM 73.9 °F 55.0 °F 52% 29.85 in 10.0 mi WSW 15.0 mph - N/A   Mostly Cloudy
3:51 PM 73.9 °F 55.9 °F 53% 29.84 in 10.0 mi West 13.8 mph 21.9 mph N/A   Overcast
4:51 PM 73.0 °F 57.9 °F 59% 29.84 in 10.0 mi WSW 8.1 mph - N/A   Mostly Cloudy
5:51 PM 73.0 °F 57.0 °F 57% 29.83 in 10.0 mi SW 11.5 mph - N/A   Mostly Cloudy
6:51 PM 72.0 °F 57.0 °F 59% 29.82 in 10.0 mi West 8.1 mph - N/A   Mostly Cloudy
7:51 PM 70.0 °F 57.0 °F 63% 29.84 in 10.0 mi NW 12.7 mph 16.1 mph N/A   Mostly Cloudy
8:08 PM 68.0 °F 57.2 °F 68% 29.87 in 10.0 mi NW 11.5 mph 20.7 mph 0.00 in Rain Light Rain
8:51 PM 66.9 °F 55.0 °F 66% 29.86 in 10.0 mi NW 8.1 mph - 0.00 in   Mostly Cloudy
9:51 PM 66.0 °F 55.0 °F 68% 29.88 in 10.0 mi NW 9.2 mph - N/A   Mostly Cloudy
10:51 PM 64.9 °F 55.9 °F 73% 29.90 in 10.0 mi NW 8.1 mph - 0.00 in   Mostly Cloudy
11:51 PM 61.0 °F 55.0 °F 81% 29.91 in 10.0 mi North 12.7 mph - N/A   Mostly Cloudy